Location: Andrest
(43.3200°N, 0.0641°E)
Time: 02:04:47
(UTC+00:00)

COSMO-SKYMED 1 - Pass Details

Date: 21 April 2021
Orbit: 621 x 623 km, 97.9° (Epoch: 18 May)

Event Time Altitude Azimuth Distance (km) Brightness Sun altitude
Rises 19:39:45 0° 351° (N) 2,912 6.5 -9.2°
Reaches altitude 10° 19:43:26 10° 319° (NW) 1,999 6.4 -9.8°
Maximum altitude 19:44:50 11° 300° (WNW) 1,900 6.6 -10.0°
Drops below altitude 10° 19:46:15 10° 281° (W) 1,994 6.5 -10.3°
Sets 19:49:55 0° 248° (WSW) 2,894 6.6 -10.9°
